Weather reports worldwide

Advertisment
Kilis, Turkey (17262): temperature & dewpoint: 26.06.2020 10:00:00 - 02.07.2020 10:00:00 (EEST)Kilis, Turkey (17262): wind speed: 26.06.2020 10:00:00 - 02.07.2020 10:00:00 (EEST)Kilis, Turkey (17262): wind direction: 26.06.2020 10:00:00 - 02.07.2020 10:00:00 (EEST)Kilis, Turkey (17262): reduced air pressure: 26.06.2020 10:00:00 - 02.07.2020 10:00:00 (EEST)Kilis, Turkey (17262): visibility: 26.06.2020 10:00:00 - 02.07.2020 10:00:00 (EEST)
Date & Time tt [°C] td [°C] ff [km/h] ff [kn] dd ppp [hPa] vv [km]
02.07.2020 10:00:00 - - - - - - -
02.07.2020 09:00:00 31,8 8,5 2 1 NE 1003,2 20
02.07.2020 08:00:00 - - - - - - -
02.07.2020 07:00:00 - - - - - - -
02.07.2020 06:00:00 - - - - - - -
02.07.2020 05:00:00 - - - - - - -
02.07.2020 04:00:00 - - - - - - -
02.07.2020 03:00:00 - - - - - - -
02.07.2020 02:00:00 - - - - - - -
02.07.2020 01:00:00 - - - - - - -
02.07.2020 00:00:00 - - - - - - -
01.07.2020 23:00:00 - - - - - - -
01.07.2020 22:00:00 - - - - - - -
01.07.2020 21:00:00 29,0 12,9 11 6 W 1001,3 20
01.07.2020 20:00:00 30,6 11,4 9 5 W 1000,9 20
01.07.2020 19:00:00 32,6 10,3 13 7 W 1000,5 20
01.07.2020 18:00:00 33,4 10,2 15 8 W 1000,2 20
01.07.2020 17:00:00 34,4 9,9 15 8 W 1000,2 20
01.07.2020 16:00:00 35,3 7,2 4 2 WNW 1000,3 20
01.07.2020 15:00:00 34,8 5,9 5 3 W 1000,4 20
01.07.2020 14:00:00 34,6 6,3 8 4 W 1001,1 20
01.07.2020 13:00:00 33,8 5,9 5 3 WNW 1001,6 20
01.07.2020 12:00:00 32,7 5,6 11 6 W 1001,6 20
01.07.2020 11:00:00 31,8 9,5 5 3 WNW 1001,6 20
01.07.2020 10:00:00 30,0 8,9 8 4 W 1001,8 20
01.07.2020 09:00:00 27,7 9,5 8 4 W 1001,8 20
01.07.2020 08:00:00 - - - - - - -
01.07.2020 07:00:00 - - - - - - -
01.07.2020 06:00:00 - - - - - - -
01.07.2020 05:00:00 - - - - - - -
01.07.2020 04:00:00 - - - - - - -
01.07.2020 03:00:00 - - - - - - -
01.07.2020 02:00:00 - - - - - - -
01.07.2020 01:00:00 - - - - - - -
01.07.2020 00:00:00 - - - - - - -
30.06.2020 23:00:00 - - - - - - -
30.06.2020 22:00:00 - - - - - - -
30.06.2020 21:00:00 26,1 13,2 22 12 W 999,2 20
30.06.2020 20:00:00 27,1 13,6 16 9 WNW 998,7 20
30.06.2020 19:00:00 28,8 13,3 16 9 WNW 998,5 20
30.06.2020 18:00:00 30,7 12,0 18 10 W 997,8 20
30.06.2020 17:00:00 32,3 10,1 13 7 W 997,5 20
30.06.2020 16:00:00 33,6 6,9 13 7 W 997,5 20
30.06.2020 15:00:00 33,7 4,9 9 5 W 997,6 20
30.06.2020 14:00:00 33,5 4,2 9 5 W 997,9 20
30.06.2020 13:00:00 33,3 4,9 11 6 W 998,3 20
30.06.2020 12:00:00 31,8 5,3 11 6 W 998,7 20
30.06.2020 11:00:00 31,0 5,3 9 5 W 998,8 20
30.06.2020 10:00:00 29,2 8,3 13 7 W 998,8 20
30.06.2020 09:00:00 27,1 10,7 11 6 W 998,9 20
30.06.2020 08:00:00 - - - - - - -
30.06.2020 07:00:00 - - - - - - -
30.06.2020 06:00:00 - - - - - - -
30.06.2020 05:00:00 - - - - - - -
30.06.2020 04:00:00 - - - - - - -
30.06.2020 03:00:00 - - - - - - -
30.06.2020 02:00:00 - - - - - - -
30.06.2020 01:00:00 - - - - - - -
30.06.2020 00:00:00 - - - - - - -
29.06.2020 23:00:00 - - - - - - -
29.06.2020 22:00:00 - - - - - - -
29.06.2020 21:00:00 26,3 15,0 18 10 W 999,4 20
29.06.2020 20:00:00 26,9 14,6 15 8 W 999,4 20
29.06.2020 19:00:00 29,0 13,8 11 6 WSW 999,6 20
29.06.2020 18:00:00 31,0 12,4 13 7 WSW 999,2 20
29.06.2020 17:00:00 32,5 10,6 15 8 WSW 998,9 20
29.06.2020 16:00:00 33,8 7,3 16 9 WSW 998,9 20
29.06.2020 15:00:00 35,0 6,6 11 6 W 998,9 20
29.06.2020 14:00:00 34,7 6,7 13 7 WSW 999,4 20
29.06.2020 13:00:00 34,0 7,7 11 6 W 1000,1 20
29.06.2020 12:00:00 33,5 8,0 13 7 W 1000,4 20
29.06.2020 11:00:00 32,4 8,0 13 7 W 1000,5 20
29.06.2020 10:00:00 30,2 8,9 15 8 W 1000,7 20
29.06.2020 09:00:00 28,2 11,3 8 4 WNW 1000,6 20
29.06.2020 08:00:00 - - - - - - -
29.06.2020 07:00:00 - - - - - - -
29.06.2020 06:00:00 - - - - - - -
29.06.2020 05:00:00 - - - - - - -
29.06.2020 04:00:00 - - - - - - -
29.06.2020 03:00:00 - - - - - - -
29.06.2020 02:00:00 - - - - - - -
29.06.2020 01:00:00 - - - - - - -
29.06.2020 00:00:00 - - - - - - -
28.06.2020 23:00:00 - - - - - - -
28.06.2020 22:00:00 - - - - - - -
28.06.2020 21:00:00 28,0 15,0 16 9 W 1001,1 20
28.06.2020 20:00:00 29,4 14,3 16 9 W 1001,0 20
28.06.2020 19:00:00 31,5 11,9 16 9 W 1000,8 20
28.06.2020 18:00:00 32,1 12,2 15 8 WSW 1000,8 20
28.06.2020 17:00:00 33,5 10,8 13 7 WSW 1000,7 20
28.06.2020 16:00:00 35,9 5,2 13 7 W 1000,6 20
28.06.2020 15:00:00 36,1 4,3 5 3 W 1000,8 20
28.06.2020 14:00:00 35,5 4,6 5 3 WNW 1001,4 20
28.06.2020 13:00:00 34,5 3,7 5 3 W 1001,9 20
28.06.2020 12:00:00 33,6 5,9 8 4 WNW 1002,3 20
28.06.2020 11:00:00 32,1 8,2 5 3 W 1002,6 20
28.06.2020 10:00:00 30,1 8,5 9 5 W 1002,9 20
28.06.2020 09:00:00 28,3 9,5 5 3 W 1003,0 20
28.06.2020 08:00:00 - - - - - - -
28.06.2020 07:00:00 - - - - - - -
28.06.2020 06:00:00 - - - - - - -
28.06.2020 05:00:00 - - - - - - -
28.06.2020 04:00:00 - - - - - - -
28.06.2020 03:00:00 - - - - - - -
28.06.2020 02:00:00 - - - - - - -
28.06.2020 01:00:00 - - - - - - -
28.06.2020 00:00:00 - - - - - - -
27.06.2020 23:00:00 - - - - - - -
27.06.2020 22:00:00 - - - - - - -
27.06.2020 21:00:00 28,3 13,5 13 7 W 1002,3 20
27.06.2020 20:00:00 29,5 11,8 15 8 W 1002,3 20
27.06.2020 19:00:00 31,6 10,1 13 7 W 1002,2 20
27.06.2020 18:00:00 33,7 7,2 13 7 W 1001,6 20
27.06.2020 17:00:00 34,3 9,1 13 7 WSW 1001,6 20
27.06.2020 16:00:00 34,8 9,2 15 8 WSW 1001,6 20
27.06.2020 15:00:00 35,1 9,4 11 6 W 1001,6 20
27.06.2020 14:00:00 35,2 3,6 8 4 WNW 1002,0 20
27.06.2020 13:00:00 34,1 5,8 8 4 WNW 1002,4 20
27.06.2020 12:00:00 32,7 10,2 9 5 W 1002,9 20
27.06.2020 11:00:00 31,5 10,7 11 6 W 1003,2 20
27.06.2020 10:00:00 29,4 11,7 13 7 W 1003,3 20
27.06.2020 09:00:00 26,8 13,4 11 6 WNW 1003,3 20
27.06.2020 08:00:00 - - - - - - -
27.06.2020 07:00:00 - - - - - - -
27.06.2020 06:00:00 - - - - - - -
27.06.2020 05:00:00 - - - - - - -
27.06.2020 04:00:00 - - - - - - -
27.06.2020 03:00:00 - - - - - - -
27.06.2020 02:00:00 - - - - - - -
27.06.2020 01:00:00 - - - - - - -
27.06.2020 00:00:00 - - - - - - -
26.06.2020 23:00:00 - - - - - - -
26.06.2020 22:00:00 - - - - - - -
26.06.2020 21:00:00 26,2 14,3 9 5 W 1003,6 20
26.06.2020 20:00:00 28,5 12,8 11 6 W 1003,4 20
26.06.2020 19:00:00 30,9 10,8 13 7 WSW 1003,1 20
26.06.2020 18:00:00 33,1 9,1 13 7 WSW 1002,7 20
26.06.2020 17:00:00 34,5 8,4 11 6 W 1002,6 20
26.06.2020 16:00:00 35,1 8,8 13 7 W 1002,9 20
26.06.2020 15:00:00 35,4 9,9 11 6 WSW 1003,1 20
26.06.2020 14:00:00 35,3 7,9 11 6 W 1003,2 20
26.06.2020 13:00:00 34,6 8,5 5 3 WNW 1003,9 20
26.06.2020 12:00:00 33,0 11,1 9 5 WNW 1004,7 20
26.06.2020 11:00:00 31,0 12,6 9 5 WNW 1005,1 20
26.06.2020 10:00:00 28,5 13,7 9 5 WNW 1005,2 20

tt = temperature
td = dewpoint
ff = wind speed
dd = wind direction
ppp = reduced air pressure
vv = visibility

Next stations